DELTA 1 DEB, 7088

Orbit data source: Space-Track

DELTA 1 DEB, 7088 is space debris in SSO originally from a launch on Tue, 06 Nov 1973 UTC launched from the Air Force Western Test Range (AFWTR). Debris objects in space refer to the collection of defunct objects orbiting the Earth. Examples of debris include non-operational satellites, rocket bodies, and fragments generated from explosions, collisions, or faulty payload assembly.

Loading next visibility...
Identifier
7088, 1973-086CG
Orbit
SSO
Country
Flag of USUS
Related business
Manufacturer
Unknown
Mission
Spacecraft
Bus & Motor
Unknown
Mass
Unknown
Launch date (UTC)
1973-11-06 (53 years ago)
Launch vehicle
Unknown
Launch site
Air Force Western Test Range (AFWTR)
Object type
Payload
Rocket body
Debris
Shape & HBR
Unknown shape, 0.1 m
Radar Cross Section
Medium (>0.1 m² and <1 m²)

Expand to show TLE details & history
Last TLE update: 1 day ago

TLE from 1 day ago
0 DELTA 1 DEB
1 07088U 73086CG  26262.33507694  .00000182  00000-0  84793-3 0  9997
2 07088 102.4028 201.5621 0256553 277.5935 236.8879 12.84639725464636
Epoch: 2026-09-19T08:02Z
TLE epoch observation values (Epoch: 2026-09-19T08:02:30.647Z)
Latitude
27.26943°
Longitude
-90.83383°
Altitude
1,437.35 km
Speed
7.093 km/s
True Right ascension
01h 52m 09s
True Declination
27° 08' 30"
Sunlit
Object was in full shadow at epoch
Visualization orbit readout
Latitude
Unknown
Longitude
Unknown
Altitude
Unknown
Speed
Unknown
Apparent Right ascension
Unknown
Apparent Declination
Unknown
Sunlit
N/A
Visualization observer readout
Local Sidereal Time
11:58:22
Azimuth
Unknown
Elevation
Unknown
Doppler factor
Unknown
Orbital elements
Apogee altitude
1,517.919 km
Perigee altitude
1,122.902 km
Semi-major axis
7,698.548 km
Eccentricity
0.02566
Inclination
102.4028°
RAAN
201.5621°
Arg. of periapsis
277.5935°
True anomaly
234.46859°
Mean anomaly
236.8879°
Eccentric anomaly
235.67396°
Mean motion
3.21314 °/min
Orbital period
112.04 mins
BSTAR
0.00084793
Loading maneuver chart data...
Computing Atmospheric mass density...
Loading historical data...
Loading historical data...
Loading historical data...
Loading historical data...
Loading historical data...
Loading historical data...
Loading historical data...

Documentation

Showing up to 5 results
|